Location: Newark
(58.8333°N, 23.5833°E)
Time: 01:59:39
(UTC+00:00)

A-11 Canister half - Visible Passes

Search period start: 19 November 2019 00:00
Search period end: 29 November 2019 00:00
Orbit: 1527 x 1682 km, 47.3° (Epoch: 18 November)

Date Brightness Start Highest point End Pass type
(mag) Time Alt. Az. Time Alt. Az. Time Alt. Az.
19 Nov 10.5 14:46:06 10° W 14:54:36 36° SSW 15:02:52 10° SE visible
19 Nov 11.1 16:51:23 10° W 16:57:18 18° SW 17:03:08 10° S visible
20 Nov 11.1 16:29:38 10° W 16:35:47 19° SW 16:41:51 10° S visible
21 Nov 11.1 16:07:54 10° W 16:14:17 20° SW 16:20:32 10° S visible
22 Nov 11.2 15:46:11 10° W 15:52:46 21° SW 15:59:13 10° S visible
23 Nov 11.2 15:24:28 10° W 15:31:14 22° SW 15:37:52 10° S visible
24 Nov 11.2 15:02:45 10° W 15:09:42 23° SW 15:16:31 10° S visible
25 Nov 11.3 14:41:03 10° W 14:48:10 24° SW 14:55:09 10° S visible
26 Nov 11.3 14:19:21 10° W 14:26:38 24° SW 14:33:46 10° SSE visible
